COSMOS 252 DEB, 3785

Orbit data source: Space-Track

COSMOS 252 DEB, 3785 is space debris in LEO originally from a launch on Fri, 01 Nov 1968 UTC launched from the Tyuratam Missile And Space Complex (TTMTR). Debris objects in space refer to the collection of defunct objects orbiting the Earth. Examples of debris include non-operational satellites, rocket bodies, and fragments generated from explosions, collisions, or faulty payload assembly.

Loading next visibility...
Identifier
3785, 1968-097AX
Orbit
LEO
Country
Flag of CISCIS
Related business
Manufacturer
Unknown
Mission
Spacecraft
Bus & Motor
Unknown
Mass
Unknown
Launch date (UTC)
1968-11-01 (58 years ago)
Launch vehicle
Unknown
Launch site
Tyuratam Missile And Space Complex (TTMTR)
Object type
Payload
Rocket body
Debris
Shape & HBR
Unknown shape, 0.1 m
Radar Cross Section
Medium (>0.1 m² and <1 m²)

Expand to show TLE details & history
Last TLE update: 1 day ago

TLE from 1 day ago
0 COSMOS 252 DEB
1 03785U 68097AX  26174.43676075 -.00000062  00000-0  24948-4 0  9991
2 03785  62.2523 279.1008 0788515  72.5004 296.0530 12.79126843557144
Epoch: 2026-06-23T10:28Z
TLE epoch observation values (Epoch: 2026-06-23T10:28:56.128Z)
Latitude
-0.00008°
Longitude
-149.74145°
Altitude
1,119.829 km
Speed
7.399 km/s
True Right ascension
18h 36m 24s
True Declination
0° 00' 00"
Sunlit
Object was in full shadow at epoch
Visualization orbit readout
Latitude
Unknown
Longitude
Unknown
Altitude
Unknown
Speed
Unknown
Apparent Right ascension
Unknown
Apparent Declination
Unknown
Sunlit
N/A
Visualization observer readout
Local Sidereal Time
00:15:38
Azimuth
Unknown
Elevation
Unknown
Doppler factor
Unknown
Orbital elements
Apogee altitude
1,952.882 km
Perigee altitude
735.08 km
Semi-major axis
7,722.118 km
Eccentricity
0.07885
Inclination
62.2523°
RAAN
279.1008°
Arg. of periapsis
72.5004°
True anomaly
287.59974°
Mean anomaly
296.053°
Eccentric anomaly
291.85999°
Mean motion
3.19844 °/min
Orbital period
112.55 mins
BSTAR
0.000024948
Loading maneuver chart data...
Computing Atmospheric mass density...
Loading historical data...
Loading historical data...
Loading historical data...
Loading historical data...
Loading historical data...
Loading historical data...
Loading historical data...

Documentation

Showing up to 5 results
|